GW6733 Weather Reports


time (UTC)temp
C
wind
direction
speed
KPH
gust
KPH
rain 1hr
cm
rain 24hr
cm
rain mn
cm
humidity
%
barometer
mb
20260504081529 4 45 3.2 3.2 0.00 0.00 0.00 74 1015.3
20260504081025 4 59 3.2 4.8 0.00 0.00 0.00 72 1015.2
20260504080521 4 78 3.2 4.8 0.00 0.00 0.00 74 1015.2
20260504050334 6 20 0.0 3.2 0.00 0.00 0.00 65 1015.4
20260504045831 6 57 3.2 3.2 0.00 0.00 0.00 67 1015.5
20260504045326 6 54 3.2 4.8 0.00 0.00 0.00 69 1015.4
20260504044823 6 59 3.2 3.2 0.00 0.00 0.00 68 1015.5
20260504044320 7 78 3.2 3.2 0.00 0.00 0.00 66 1015.6
20260504043818 7 51 3.2 3.2 0.00 0.00 0.00 62 1015.7
20260504043314 7 19 1.6 3.2 0.00 0.00 0.00 57 1015.6
20260504042812 7 29 1.6 4.8 0.00 0.00 0.00 60 1015.6
20260504042308 7 46 3.2 3.2 0.00 0.00 0.00 61 1015.4
20260504041805 7 326 0.0 3.2 0.00 0.00 0.00 60 1015.4
20260504041301 7 29 3.2 3.2 0.00 0.00 0.00 57 1015.6
20260504040757 7 33 3.2 3.2 0.00 0.00 0.00 58 1015.6
20260504040255 7 49 3.2 4.8 0.00 0.00 0.00 61 1015.4
20260504035750 7 53 3.2 4.8 0.00 0.00 0.00 62 1015.4
20260504035248 7 52 3.2 3.2 0.00 0.00 0.00 62 1015.5
20260504034745 7 59 3.2 3.2 0.00 0.00 0.00 65 1015.4
20260504034242 7 57 3.2 3.2 0.00 0.00 0.00 62 1015.1
20260504033740 7 31 1.6 1.6 0.00 0.00 0.00 64 1015.2
20260504033237 7 76 1.6 3.2 0.00 0.00 0.00 64 1015.3
20260504032734 7 57 3.2 3.2 0.00 0.00 0.00 59 1015.3
20260504032231 7 46 3.2 4.8 0.00 0.00 0.00 58 1015.1
20260504031728 7 52 3.2 3.2 0.00 0.00 0.00 59 1015.5
20260504031225 7 30 3.2 3.2 0.00 0.00 0.00 56 1015.2
20260504030721 7 41 3.2 4.8 0.00 0.00 0.00 59 1015.1
20260504030218 7 37 0.0 3.2 0.00 0.00 0.00 60 1014.9
20260504025715 8 87 3.2 3.2 0.00 0.00 0.00 61 1014.9
20260504025211 8 49 3.2 4.8 0.00 0.00 0.00 57 1014.8
20260504024709 8 49 3.2 3.2 0.00 0.00 0.00 55 1014.8
20260504024205 8 16 3.2 4.8 0.00 0.00 0.00 53 1015.0
20260504023702 7 28 3.2 3.2 0.00 0.00 0.00 58 1014.8
20260504023158 7 64 1.6 3.2 0.00 0.00 0.00 58 1015.0
20260504022654 7 50 3.2 4.8 0.00 0.00 0.00 56 1014.9
20260504022150 8 40 3.2 3.2 0.00 0.00 0.00 60 1014.9
20260504021648 8 10 0.0 0.0 0.00 0.00 0.00 58 1015.1
20260504021145 8 43 1.6 3.2 0.00 0.00 0.00 54 1014.9
20260504020642 8 46 3.2 4.8 0.00 0.00 0.00 53 1014.9
20260504020137 8 50 3.2 3.2 0.00 0.00 0.00 53 1014.9
20260504015635 8 54 3.2 3.2 0.00 0.00 0.00 56 1014.9
20260504015131 8 66 3.2 3.2 0.00 0.00 0.00 53 1014.8
20260504014626 8 49 4.8 4.8 0.00 0.00 0.00 54 1014.9
20260504014124 9 52 1.6 3.2 0.00 0.00 0.00 54 1014.9
20260504013621 9 52 3.2 4.8 0.00 0.00 0.00 53 1014.8
20260504013118 9 48 3.2 3.2 0.00 0.00 0.00 51 1014.9
20260504012616 9 52 3.2 3.2 0.00 0.00 0.00 51 1015.0
20260504012113 9 45 3.2 3.2 0.00 0.00 0.00 49 1014.8
20260504011610 9 18 3.2 4.8 0.00 0.00 0.00 50 1014.6
20260504011106 9 40 3.2 4.8 0.00 0.00 0.00 49 1014.5
20260504010602 10 49 3.2 3.2 0.00 0.00 0.00 49 1014.7
20260504010058 10 66 1.6 3.2 0.00 0.00 0.00 49 1014.7
20260504005555 10 46 3.2 3.2 0.00 0.00 0.00 51 1014.6
20260504005052 10 53 3.2 4.8 0.00 0.00 0.00 49 1014.7
20260504004550 10 74 3.2 4.8 0.00 0.00 0.00 49 1014.5
20260504004047 10 50 3.2 3.2 0.00 0.00 0.00 47 1014.6
20260504003543 10 50 3.2 3.2 0.00 0.00 0.00 47 1014.3
20260504003040 10 57 3.2 3.2 0.00 0.00 0.00 48 1014.3
20260504002537 11 47 1.6 3.2 0.00 0.00 0.00 48 1014.3
20260504002035 11 59 0.0 3.2 0.00 0.00 0.00 47 1014.2
20260504001532 11 67 0.0 1.6 0.00 0.00 0.00 46 1014.2
20260504001028 12 36 1.6 3.2 0.00 0.00 0.00 44 1014.3
20260504000525 12 42 3.2 3.2 0.00 0.00 0.00 41 1014.1
20260504000022 12 41 3.2 3.2 0.00 0.00 0.00 41 1014.2
20260503235521 13 60 0.0 3.2 0.00 0.00 0.00 39 1013.9
20260503235017 13 70 0.0 3.2 0.00 0.00 0.00 35 1014.0
20260503234515 13 250 8.0 8.0 0.00 0.00 0.00 34 1013.8
20260503234013 13 1 1.6 8.0 0.00 0.00 0.00 35 1013.8
20260503233509 14 256 0.0 4.8 0.00 0.00 0.00 34 1013.9
20260503233005 14 245 1.6 6.4 0.00 0.00 0.00 33 1013.7
20260503232502 14 303 3.2 9.7 0.00 0.00 0.00 32 1013.8
20260503232000 14 312 4.8 6.4 0.00 0.00 0.00 33 1013.6
20260503231457 15 17 1.6 12.9 0.00 0.00 0.00 34 1013.9
20260503230954 15 241 3.2 8.0 0.00 0.00 0.00 33 1013.7
20260503230450 15 21 3.2 4.8 0.00 0.00 0.00 33 1013.8
20260503225948 15 235 0.0 3.2 0.00 0.00 0.00 34 1013.8
20260503225445 15 27 3.2 6.4 0.00 0.00 0.00 32 1013.7
20260503224940 15 306 0.0 11.3 0.00 0.00 0.00 32 1013.8
20260503224437 15 27 3.2 4.8 0.00 0.00 0.00 32 1013.6
20260503223935 15 2 4.8 19.3 0.00 0.00 0.00 31 1014.0
20260503223433 15 285 6.4 14.5 0.00 0.00 0.00 31 1013.6
20260503222928 15 283 4.8 9.7 0.00 0.00 0.00 32 1013.6
20260503222427 15 323 1.6 3.2 0.00 0.00 0.00 32 1013.6
20260503221925 15 203 3.2 8.0 0.00 0.00 0.00 32 1013.9
20260503221423 15 249 12.9 17.7 0.00 0.00 0.00 30 1013.7
20260503220919 15 132 1.6 9.7 0.00 0.00 0.00 32 1013.8
20260503220416 15 242 6.4 14.5 0.00 0.00 0.00 31 1013.8
20260503215913 16 262 6.4 20.9 0.00 0.00 0.00 31 1013.7
20260503215410 16 312 9.7 14.5 0.00 0.00 0.00 30 1013.9
20260503214907 15 249 0.0 4.8 0.00 0.00 0.00 33 1013.8
20260503214405 16 355 1.6 6.4 0.00 0.00 0.00 30 1013.8
20260503213902 16 118 1.6 6.4 0.00 0.00 0.00 30 1013.7
20260503213400 15 149 3.2 11.3 0.00 0.00 0.00 31 1013.7
20260503212856 16 296 4.8 6.4 0.00 0.00 0.00 32 1013.8
20260503212354 16 222 4.8 9.7 0.00 0.00 0.00 29 1013.8
20260503211851 16 70 3.2 9.7 0.00 0.00 0.00 29 1013.6
20260503211348 16 140 3.2 9.7 0.00 0.00 0.00 30 1013.7
20260503210843 16 319 6.4 11.3 0.00 0.00 0.00 29 1013.6
20260503210340 16 282 3.2 12.9 0.00 0.00 0.00 30 1013.6
20260503205835 16 265 8.0 11.3 0.00 0.00 0.00 30 1013.6
20260503205332 16 349 6.4 12.9 0.00 0.00 0.00 29 1013.9
20260503204829 16 285 11.3 14.5 0.00 0.00 0.00 29 1013.9
20260503204326 16 295 11.3 12.9 0.00 0.00 0.00 29 1013.7
20260503203823 16 202 6.4 9.7 0.00 0.00 0.00 31 1013.7
20260503203321 16 216 12.9 14.5 0.00 0.00 0.00 28 1013.9
20260503202817 16 350 8.0 19.3 0.00 0.00 0.00 29 1014.0
20260503202315 16 299 6.4 12.9 0.00 0.00 0.00 30 1013.8
20260503201813 16 247 16.1 17.7 0.00 0.00 0.00 29 1013.9
20260503201310 16 146 8.0 9.7 0.00 0.00 0.00 31 1013.8
20260503200808 16 273 1.6 6.4 0.00 0.00 0.00 31 1014.0
20260503200303 15 298 6.4 14.5 0.00 0.00 0.00 32 1014.1
20260503195801 15 60 3.2 9.7 0.00 0.00 0.00 32 1014.1
20260503195257 15 298 8.0 9.7 0.00 0.00 0.00 30 1014.1
20260503194755 16 234 4.8 9.7 0.00 0.00 0.00 31 1014.2
20260503194250 15 237 3.2 17.7 0.00 0.00 0.00 31 1014.2
20260503193747 16 195 6.4 17.7 0.00 0.00 0.00 30 1014.3
20260503193243 16 256 8.0 9.7 0.00 0.00 0.00 30 1014.3
20260503192739 16 201 1.6 6.4 0.00 0.00 0.00 29 1014.4
20260503192234 16 283 3.2 8.0 0.00 0.00 0.00 30 1014.4
20260503191731 15 351 3.2 9.7 0.00 0.00 0.00 29 1014.4
20260503191228 15 352 8.0 14.5 0.00 0.00 0.00 29 1014.5
20260503190725 15 151 1.6 6.4 0.00 0.00 0.00 32 1014.5
20260503190221 15 310 1.6 14.5 0.00 0.00 0.00 29 1014.7
20260503185719 15 354 4.8 12.9 0.00 0.00 0.00 31 1014.7
20260503185214 15 191 3.2 9.7 0.00 0.00 0.00 30 1014.9
20260503184709 15 234 8.0 19.3 0.00 0.00 0.00 31 1015.0
20260503184206 15 178 1.6 8.0 0.00 0.00 0.00 33 1015.0
20260503183702 15 101 9.7 9.7 0.00 0.00 0.00 31 1015.0
20260503183159 13 259 4.8 20.9 0.00 0.00 0.00 30 1015.0
20260503182657 14 67 6.4 14.5 0.00 0.00 0.00 32 1015.1
20260503182156 14 219 8.0 12.9 0.00 0.00 0.00 32 1015.2
20260503181652 14 347 6.4 12.9 0.00 0.00 0.00 33 1015.1
20260503181149 13 345 4.8 19.3 0.00 0.00 0.00 30 1015.1
20260503180646 15 284 9.7 11.3 0.00 0.00 0.00 33 1015.2
20260503180144 13 215 8.0 11.3 0.00 0.00 0.00 33 1015.3
20260503175640 13 259 3.2 9.7 0.00 0.00 0.00 31 1015.5
20260503175138 13 313 3.2 9.7 0.00 0.00 0.00 32 1015.3
20260503174634 13 6 4.8 6.4 0.00 0.00 0.00 34 1015.4
20260503174131 13 188 6.4 16.1 0.00 0.00 0.00 32 1015.4
20260503173626 13 206 8.0 19.3 0.00 0.00 0.00 35 1015.2
20260503173123 13 113 4.8 11.3 0.00 0.00 0.00 34 1015.3
20260503172620 13 122 4.8 12.9 0.00 0.00 0.00 33 1015.5
20260503172118 13 267 6.4 16.1 0.00 0.00 0.00 33 1015.4
20260503171614 13 349 6.4 12.9 0.00 0.00 0.00 33 1015.5
20260503171111 13 101 1.6 6.4 0.00 0.00 0.00 37 1015.5
20260503170608 12 213 6.4 9.7 0.00 0.00 0.00 37 1015.6
20260503170105 12 255 9.7 20.9 0.00 0.00 0.00 34 1015.8
20260503151000 11 215 9.7 16.1 0.00 0.00 0.00 38 1016.7
20260503150456 11 203 4.8 22.5 0.00 0.00 0.00 38 1016.4
20260503131349 8 86 8.0 20.9 0.00 0.00 0.00 42 1016.8
20260503130847 8 172 6.4 12.9 0.00 0.00 0.00 44 1017.1
20260503130344 8 26 4.8 19.3 0.00 0.00 0.00 43 1016.7
20260503110738 3 45 3.2 3.2 0.00 0.00 0.00 65 1016.1
20260503110235 3 64 1.6 3.2 0.00 0.00 0.00 66 1015.9
20260503100201 3 171 3.2 4.8 0.00 0.00 0.00 65 1015.1